GW2473 Weather Reports


Display with metric or nautical units.
time (UTC)temp
F
wind
direction
speed
MPH
gust
MPH
rain 1hr
in
rain 24hr
in
rain mn
in
humidity
%
barometer
mb
20260504110516 47 194 0.0 7.0 0.00 0.00 0.00 55 1012.1
20260504100517 46 278 1.0 4.0 0.00 0.00 0.00 54 1012.1
20260504081532 47 177 1.0 7.0 0.00 0.00 0.00 53 1012.2
20260504081015 47 0 1.0 7.0 0.00 0.00 0.00 53 1012.1
20260504080514 47 0 1.0 7.0 0.00 0.00 0.00 53 1012.1
20260504050515 49 352 2.0 12.0 0.00 0.00 0.00 49 1011.9
20260504045515 49 342 3.0 12.0 0.00 0.00 0.00 49 1012.0
20260504045015 49 288 3.0 8.0 0.00 0.00 0.00 49 1011.9
20260504044537 49 132 1.0 11.0 0.00 0.00 0.00 49 1011.9
20260504044017 49 256 3.0 11.0 0.00 0.00 0.00 49 1011.7
20260504043515 50 298 2.0 10.0 0.00 0.00 0.00 49 1011.7
20260504043041 50 15 4.0 9.0 0.00 0.00 0.00 47 1011.7
20260504042516 50 320 3.0 9.0 0.00 0.00 0.00 47 1011.8
20260504042017 50 323 4.0 9.0 0.00 0.00 0.00 47 1011.7
20260504041532 50 342 3.0 9.0 0.00 0.00 0.00 47 1011.7
20260504041015 50 284 4.0 10.0 0.00 0.00 0.00 48 1011.7
20260504040515 50 270 3.0 10.0 0.00 0.00 0.00 48 1011.7
20260504040036 49 314 4.0 10.0 0.00 0.00 0.00 48 1011.6
20260504035516 49 352 3.0 10.0 0.00 0.00 0.00 47 1011.6
20260504035015 49 340 3.0 8.0 0.00 0.00 0.00 48 1011.5
20260504034539 49 134 2.0 8.0 0.00 0.00 0.00 48 1011.6
20260504034017 49 291 4.0 7.0 0.00 0.00 0.00 48 1011.5
20260504033517 49 275 1.0 6.0 0.00 0.00 0.00 49 1011.6
20260504033030 49 290 1.0 7.0 0.00 0.00 0.00 48 1011.5
20260504032513 49 281 1.0 7.0 0.00 0.00 0.00 48 1011.6
20260504032015 49 0 1.0 8.0 0.00 0.00 0.00 48 1011.6
20260504031530 49 323 2.0 8.0 0.00 0.00 0.00 48 1011.7
20260504031015 49 198 0.0 4.0 0.00 0.00 0.00 48 1011.7
20260504030514 48 243 1.0 5.0 0.00 0.00 0.00 48 1011.7
20260504030030 48 0 1.0 5.0 0.00 0.00 0.00 49 1011.6
20260504025515 48 197 1.0 4.0 0.00 0.00 0.00 49 1011.7
20260504025015 48 202 1.0 6.0 0.00 0.00 0.00 49 1011.6
20260504024532 48 209 3.0 6.0 0.00 0.00 0.00 50 1011.6
20260504024014 48 202 2.0 6.0 0.00 0.00 0.00 52 1011.7
20260504023514 47 215 3.0 6.0 0.00 0.00 0.00 53 1011.6
20260504023029 47 215 2.0 6.0 0.00 0.00 0.00 53 1011.6
20260504022514 46 214 2.0 5.0 0.00 0.00 0.00 57 1011.7
20260504022014 46 213 1.0 4.0 0.00 0.00 0.00 56 1011.7
20260504021534 46 218 2.0 8.0 0.00 0.00 0.00 58 1011.7
20260504021013 45 186 2.0 8.0 0.00 0.00 0.00 59 1011.7
20260504020515 45 208 2.0 4.0 0.00 0.00 0.00 64 1011.8
20260504020037 44 190 2.0 4.0 0.00 0.00 0.00 64 1011.7
20260504015513 44 188 2.0 4.0 0.00 0.00 0.00 67 1011.6
20260504015015 44 202 2.0 4.0 0.00 0.00 0.00 66 1011.6
20260504014537 44 196 2.0 5.0 0.00 0.00 0.00 69 1011.5
20260504014014 44 192 2.0 5.0 0.00 0.00 0.00 68 1011.5
20260504013517 44 200 3.0 4.0 0.00 0.00 0.00 67 1011.4
20260504013031 44 190 2.0 4.0 0.00 0.00 0.00 67 1011.3
20260504012516 44 196 2.0 4.0 0.00 0.00 0.00 67 1011.3
20260504012015 44 199 3.0 4.0 0.00 0.00 0.00 67 1011.3
20260504011532 44 194 2.0 4.0 0.00 0.00 0.00 67 1011.4
20260504011014 45 196 2.0 4.0 0.00 0.00 0.00 66 1011.3
20260504010516 45 205 2.0 5.0 0.00 0.00 0.00 64 1011.3
20260504010029 45 204 3.0 5.0 0.00 0.00 0.00 63 1011.4
20260504005514 45 187 2.0 4.0 0.00 0.00 0.00 64 1011.3
20260504005012 46 205 3.0 4.0 0.00 0.00 0.00 64 1011.3
20260504004534 46 192 1.0 4.0 0.00 0.00 0.00 62 1011.3
20260504004014 47 186 2.0 4.0 0.00 0.00 0.00 62 1011.2
20260504003516 47 187 2.0 4.0 0.00 0.00 0.00 62 1011.2
20260504003030 48 190 2.0 4.0 0.00 0.00 0.00 61 1011.2
20260504002517 48 182 2.0 4.0 0.00 0.00 0.00 60 1011.0
20260504002017 49 205 2.0 4.0 0.00 0.00 0.00 56 1010.9
20260504001535 50 207 2.0 4.0 0.00 0.00 0.00 53 1010.9
20260504001015 52 236 1.0 5.0 0.00 0.00 0.00 52 1010.8
20260504000514 52 0 1.0 10.0 0.00 0.00 0.00 46 1010.9
20260504000038 53 302 3.0 10.0 0.00 0.00 0.00 47 1010.8
20260503235519 53 333 3.0 8.0 0.00 0.00 0.00 48 1010.8
20260503235016 53 325 3.0 8.0 0.00 0.00 0.00 48 1010.8
20260503234530 54 331 3.0 10.0 0.00 0.00 0.00 47 1010.7
20260503234016 54 337 5.0 12.0 0.00 0.00 0.00 49 1010.6
20260503233516 54 360 7.0 12.0 0.00 0.00 0.00 50 1010.7
20260503233034 54 350 8.0 11.0 0.00 0.00 0.00 47 1010.6
20260503232515 54 342 6.0 11.0 0.00 0.00 0.00 47 1010.6
20260503232015 54 348 7.0 11.0 0.00 0.00 0.00 45 1010.6
20260503231533 54 349 7.0 14.0 0.00 0.00 0.00 45 1010.7
20260503231017 54 17 8.0 19.0 0.00 0.00 0.00 49 1010.7
20260503230519 54 13 10.0 19.0 0.00 0.00 0.00 48 1010.8
20260503230030 54 11 11.0 19.0 0.00 0.00 0.00 44 1010.7
20260503225514 54 11 11.0 17.0 0.00 0.00 0.00 44 1010.6
20260503225020 54 24 9.0 18.0 0.00 0.00 0.00 48 1010.6
20260503224533 54 360 12.0 18.0 0.00 0.00 0.00 40 1010.6
20260503224016 54 19 12.0 18.0 0.00 0.00 0.00 48 1010.6
20260503223516 54 30 11.0 17.0 0.00 0.00 0.00 46 1010.6
20260503223030 54 28 10.0 20.0 0.00 0.00 0.00 47 1010.6
20260503222514 54 11 12.0 20.0 0.00 0.00 0.00 45 1010.6
20260503222013 54 31 14.0 20.0 0.00 0.00 0.00 43 1010.5
20260503221532 54 352 12.0 22.0 0.00 0.00 0.00 40 1010.6
20260503221014 54 9 13.0 22.0 0.00 0.00 0.00 41 1010.7
20260503220518 54 17 14.0 22.0 0.00 0.00 0.00 42 1010.7
20260503220035 54 360 12.0 22.0 0.00 0.00 0.00 47 1010.8
20260503215517 54 5 16.0 22.0 0.00 0.00 0.00 45 1010.8
20260503215016 54 352 14.0 21.0 0.00 0.00 0.00 41 1010.7
20260503214540 54 352 15.0 22.0 0.00 0.00 0.00 46 1010.7
20260503214017 54 5 13.0 23.0 0.00 0.00 0.00 41 1010.5
20260503213517 54 346 17.0 26.0 0.00 0.00 0.00 41 1010.5
20260503213032 54 347 12.0 26.0 0.00 0.00 0.00 44 1010.3
20260503212515 54 348 15.0 26.0 0.00 0.00 0.00 40 1010.2
20260503212017 54 13 14.0 21.0 0.00 0.00 0.00 41 1010.1
20260503211536 54 34 14.0 20.0 0.00 0.00 0.00 39 1010.0
20260503211014 53 360 11.0 16.0 0.00 0.00 0.00 43 1010.1
20260503210514 53 5 11.0 18.0 0.00 0.00 0.00 41 1010.1
20260503210033 53 13 11.0 18.0 0.00 0.00 0.00 42 1010.1
20260503205517 53 50 13.0 18.0 0.00 0.00 0.00 37 1010.1
20260503205016 53 338 11.0 20.0 0.00 0.00 0.00 41 1010.0
20260503204533 53 5 13.0 20.0 0.00 0.00 0.00 39 1010.0
20260503204014 53 321 13.0 20.0 0.00 0.00 0.00 35 1010.1
20260503203514 53 333 13.0 19.0 0.00 0.00 0.00 37 1010.0
20260503203043 53 352 11.0 19.0 0.00 0.00 0.00 39 1010.1
20260503202516 53 331 12.0 18.0 0.00 0.00 0.00 40 1010.1
20260503202017 52 327 11.0 16.0 0.00 0.00 0.00 38 1010.1
20260503201535 52 5 10.0 21.0 0.00 0.00 0.00 42 1010.1
20260503201018 52 5 12.0 27.0 0.00 0.00 0.00 38 1010.1
20260503200514 52 31 15.0 27.0 0.00 0.00 0.00 41 1010.3
20260503200046 52 39 16.0 27.0 0.00 0.00 0.00 39 1010.4
20260503195515 52 20 14.0 22.0 0.00 0.00 0.00 44 1010.3
20260503195016 52 336 12.0 22.0 0.00 0.00 0.00 42 1010.4
20260503194530 51 321 11.0 21.0 0.00 0.00 0.00 38 1010.6
20260503194017 51 346 13.0 21.0 0.00 0.00 0.00 39 1010.8
20260503193515 51 340 15.0 20.0 0.00 0.00 0.00 43 1010.7
20260503193034 51 352 14.0 24.0 0.00 0.00 0.00 44 1010.9
20260503192514 51 25 17.0 24.0 0.00 0.00 0.00 41 1011.0
20260503192015 51 348 13.0 23.0 0.00 0.00 0.00 46 1010.9
20260503191537 51 350 15.0 26.0 0.00 0.00 0.00 42 1011.0
20260503191018 50 15 12.0 26.0 0.00 0.00 0.00 44 1011.1
20260503190516 50 346 17.0 26.0 0.00 0.00 0.00 42 1011.2
20260503190030 50 360 17.0 25.0 0.00 0.00 0.00 44 1011.1
20260503185516 50 13 16.0 25.0 0.00 0.00 0.00 44 1011.1
20260503185019 50 9 13.0 25.0 0.00 0.00 0.00 42 1011.1
20260503184541 50 22 13.0 21.0 0.00 0.00 0.00 47 1011.3
20260503184015 50 11 13.0 23.0 0.00 0.00 0.00 43 1011.3
20260503183516 49 42 14.0 23.0 0.00 0.00 0.00 43 1011.3
20260503183032 49 18 16.0 24.0 0.00 0.00 0.00 45 1011.5
20260503182515 49 23 17.0 24.0 0.00 0.00 0.00 42 1011.3
20260503182021 49 36 14.0 24.0 0.00 0.00 0.00 44 1011.4
20260503181538 49 32 16.0 25.0 0.00 0.00 0.00 44 1011.6
20260503181015 49 12 16.0 25.0 0.00 0.00 0.00 48 1011.7
20260503180515 48 40 16.0 25.0 0.00 0.00 0.00 44 1011.5
20260503180047 48 346 11.0 26.0 0.00 0.00 0.00 44 1011.6
20260503175514 48 351 15.0 26.0 0.00 0.00 0.00 45 1011.7
20260503175014 48 40 16.0 23.0 0.00 0.00 0.00 46 1011.8
20260503174543 48 349 12.0 18.0 0.00 0.00 0.00 51 1011.9
20260503174016 48 360 11.0 20.0 0.00 0.00 0.00 41 1011.8
20260503173516 48 352 14.0 21.0 0.00 0.00 0.00 43 1011.7
20260503173040 47 350 13.0 26.0 0.00 0.00 0.00 45 1011.8
20260503172515 47 336 13.0 27.0 0.00 0.00 0.00 43 1011.9
20260503172016 47 49 14.0 27.0 0.00 0.00 0.00 42 1011.8
20260503171534 47 19 15.0 27.0 0.00 0.00 0.00 48 1011.9
20260503171014 47 9 15.0 23.0 0.00 0.00 0.00 46 1011.8
20260503170519 47 19 16.0 22.0 0.00 0.00 0.00 45 1012.0
20260503151014 43 349 13.0 18.0 0.00 0.00 0.00 57 1012.8
20260503150517 43 44 12.0 18.0 0.00 0.00 0.00 55 1012.8
20260503131016 40 34 15.0 23.0 0.00 0.00 0.00 68 1013.0
20260503130514 40 24 16.0 23.0 0.00 0.00 0.00 67 1013.0